Weather in Novi Bilokorovychi

Ukraine / Zhytomyr Region     51°06′50″N   28°03′07″E
temp.,
°C
wind,
m/s
gust,
m/s
humid.,
%
clouds,
%
prec.,
mm/h
press.,
hPa
HPBL,
m
14 may, fri
fri1400:00+10sse51287100 0.0 1007516
03:00+10sse5118799 0.0 1007445
06:00+10se5108587 0.0 1006416
09:00+12sse577863 0.0 1006422
12:00+16sse576776 0.0 1006968
15:00+17sse5774100 1.3 1005931
18:00+15s5985100 3.3 1005445
21:00+13ssw2592100 5.9 1005104
15 may, sat
sat1500:00+12sw3498100 2.8 100699
03:00+12sw3697100 5.1 1007227
06:00+11sw3696100 1.2 1008255
09:00+12sw478765 1.3 1009394
12:00+17sw556697 0.1 10091328
15:00+16wsw667575 0.3 1009872
18:00+13wsw578780 0.1 1010528
21:00+10sw359512 0.1 1011106
16 may, sun
sun1600:00+10sw369393 0.0 1011185
03:00+9sw34955 0.0 101270
06:00+8ssw22931 0.0 101226
09:00+14sse347690 0.0 1012368
12:00+18sse4561100 0.0 1011818
15:00+20sse5662100 0.1 10101392
18:00+19se377698 1.3 1009562
21:00+14se41288100 2.6 1009191
17 may, mon
mon1700:00+13sw2392100 0.9 100859
03:00+12ssw1192100 0.9 100810
06:00+12sse119496 0.4 100712
09:00+15ssw2387100 0.6 1008352
12:00+15w3488100 0.1 1008461
15:00+16wnw248168 0.3 1007536
18:00+18wnw45645 0.4 10061226
21:00+12w36840 0.4 100789
18 may, tue
tue1800:00+10wnw23890 0.0 100828
03:00+9w3390100 0.0 100942
06:00+10wsw249198 0.0 100986
09:00+14nw3479100 0.0 1010363
12:00+13nnw3482100 0.1 1011331
15:00+16ene227018 0.1 1010601
18:00+17se236626 0.1 10091057
21:00+13e228840 0.4 100819